Time,TemperatureF,DewpointF,PressureIn,WindDirection,WindDirectionDegrees,WindSpeedMPH,WindSpeedGustMPH,Humidity,HourlyPrecipIn,Conditions,Clouds,dailyrainin,SoftwareType,DateUTC
2013-03-04 00:00:00,29.6,17.8,29.81,NW,318,3.0,3.0,61,0.00,,CLR,0.00,VWS V14.01,2013-03-04 05:00:00,
2013-03-04 00:01:00,29.6,17.8,29.81,West,280,7.0,9.0,61,0.00,,CLR,0.00,VWS V14.01,2013-03-04 05:01:00,
2013-03-04 00:06:00,29.5,17.7,29.81,WNW,302,18.0,18.0,61,0.00,,CLR,0.00,VWS V14.01,2013-03-04 05:06:00,
2013-03-04 00:11:00,29.5,17.3,29.82,NW,321,11.0,18.0,60,0.00,,CLR,0.00,VWS V14.01,2013-03-04 05:11:00,
2013-03-04 00:16:00,29.5,17.3,29.82,NNW,333,17.0,18.0,60,0.00,,CLR,0.00,VWS V14.01,2013-03-04 05:16:00,
2013-03-04 00:21:00,29.4,17.2,29.82,WNW,296,5.0,18.0,60,0.00,,CLR,0.00,VWS V14.01,2013-03-04 05:21:00,
2013-03-04 00:26:00,29.4,17.2,29.82,NNW,329,13.0,18.0,60,0.00,,CLR,0.00,VWS V14.01,2013-03-04 05:26:00,
2013-03-04 00:31:00,29.3,17.1,29.82,West,272,3.0,10.0,60,0.00,,CLR,0.00,VWS V14.01,2013-03-04 05:31:00,
2013-03-04 00:36:00,29.2,17.4,29.82,NW,321,6.0,11.0,61,0.00,,CLR,0.00,VWS V14.01,2013-03-04 05:36:00,
2013-03-04 00:41:00,29.2,17.4,29.82,WNW,296,2.0,13.0,61,0.00,,CLR,0.00,VWS V14.01,2013-03-04 05:41:00,
2013-03-04 00:46:00,29.1,17.3,29.82,NW,304,5.0,13.0,61,0.00,,CLR,0.00,VWS V14.01,2013-03-04 05:46:00,
2013-03-04 00:51:00,29.0,17.2,29.82,NNW,342,3.0,16.0,61,0.00,,CLR,0.00,VWS V14.01,2013-03-04 05:51:00,
2013-03-04 00:56:00,29.0,17.6,29.82,NW,311,7.0,16.0,62,0.00,,CLR,0.00,VWS V14.01,2013-03-04 05:56:00,
2013-03-04 01:01:00,28.9,17.5,29.82,WNW,292,7.0,12.0,62,0.00,,CLR,0.00,VWS V14.01,2013-03-04 06:01:00,
2013-03-04 01:06:00,28.8,17.4,29.82,SW,233,8.0,14.0,62,0.00,,CLR,0.00,VWS V14.01,2013-03-04 06:06:00,
2013-03-04 01:11:00,28.8,17.4,29.82,NNW,330,10.0,14.0,62,0.00,,CLR,0.00,VWS V14.01,2013-03-04 06:11:00,
2013-03-04 01:16:00,28.7,17.3,29.82,NW,323,4.0,14.0,62,0.00,,CLR,0.00,VWS V14.01,2013-03-04 06:16:00,
2013-03-04 01:21:00,28.6,17.6,29.82,NW,326,12.0,15.0,63,0.00,,CLR,0.00,VWS V14.01,2013-03-04 06:21:00,
2013-03-04 01:26:00,28.6,17.6,29.82,NW,317,11.0,15.0,63,0.00,,CLR,0.00,VWS V14.01,2013-03-04 06:26:00,
2013-03-04 01:31:00,28.5,17.5,29.82,NW,319,6.0,12.0,63,0.00,,CLR,0.00,VWS V14.01,2013-03-04 06:31:00,
2013-03-04 01:36:00,28.5,17.9,29.83,WNW,288,3.0,12.0,64,0.00,,CLR,0.00,VWS V14.01,2013-03-04 06:36:00,
2013-03-04 01:41:00,28.5,17.5,29.82,WNW,298,2.0,12.0,63,0.00,,CLR,0.00,VWS V14.01,2013-03-04 06:41:00,
2013-03-04 01:46:00,28.5,17.9,29.82,WNW,301,5.0,12.0,64,0.00,,CLR,0.00,VWS V14.01,2013-03-04 06:46:00,
2013-03-04 01:51:00,28.5,17.9,29.82,West,275,4.0,12.0,64,0.00,,CLR,0.00,VWS V14.01,2013-03-04 06:51:00,
2013-03-04 01:56:00,28.5,17.9,29.82,WNW,289,6.0,12.0,64,0.00,,CLR,0.00,VWS V14.01,2013-03-04 06:56:00,
2013-03-04 02:01:00,28.4,18.1,29.82,NW,320,1.0,3.0,65,0.00,,CLR,0.00,VWS V14.01,2013-03-04 07:01:00,
2013-03-04 02:06:00,28.4,18.1,29.82,West,277,2.0,12.0,65,0.00,,CLR,0.00,VWS V14.01,2013-03-04 07:06:00,
2013-03-04 02:11:00,28.4,18.1,29.82,NW,321,3.0,12.0,65,0.00,,CLR,0.00,VWS V14.01,2013-03-04 07:11:00,
2013-03-04 02:16:00,28.4,18.1,29.82,WNW,293,3.0,12.0,65,0.00,,CLR,0.00,VWS V14.01,2013-03-04 07:16:00,
2013-03-04 02:21:00,28.4,17.8,29.82,NW,307,3.0,13.0,64,0.00,,CLR,0.00,VWS V14.01,2013-03-04 07:21:00,
2013-03-04 02:26:00,28.3,18.1,29.82,WNW,288,5.0,15.0,65,0.00,,CLR,0.00,VWS V14.01,2013-03-04 07:26:00,
2013-03-04 02:31:00,28.3,18.1,29.82,NNW,328,3.0,7.0,65,0.00,,CLR,0.00,VWS V14.01,2013-03-04 07:31:00,
2013-03-04 02:36:00,28.2,18.0,29.82,WNW,293,3.0,11.0,65,0.00,,CLR,0.00,VWS V14.01,2013-03-04 07:36:00,
2013-03-04 02:41:00,28.2,18.0,29.82,WSW,256,5.0,11.0,65,0.00,,CLR,0.00,VWS V14.01,2013-03-04 07:41:00,
2013-03-04 02:46:00,28.3,18.1,29.82,NW,319,4.0,11.0,65,0.00,,CLR,0.00,VWS V14.01,2013-03-04 07:46:00,
2013-03-04 02:51:00,28.2,18.0,29.82,NW,317,2.0,11.0,65,0.00,,CLR,0.00,VWS V14.01,2013-03-04 07:51:00,
2013-03-04 02:56:00,28.2,18.3,29.82,WNW,301,4.0,11.0,66,0.00,,CLR,0.00,VWS V14.01,2013-03-04 07:56:00,
2013-03-04 03:01:00,28.2,18.3,29.82,WNW,298,4.0,7.0,66,0.00,,OVC035,0.00,VWS V14.01,2013-03-04 08:01:00,
2013-03-04 03:06:00,28.2,18.3,29.82,NW,305,4.0,7.0,66,0.00,,OVC035,0.00,VWS V14.01,2013-03-04 08:06:00,
2013-03-04 03:11:00,28.2,18.3,29.82,WNW,284,6.0,8.0,66,0.00,,OVC035,0.00,VWS V14.01,2013-03-04 08:11:00,
2013-03-04 03:16:00,28.2,18.3,29.82,West,279,3.0,11.0,66,0.00,,OVC035,0.00,VWS V14.01,2013-03-04 08:16:00,
2013-03-04 03:21:00,28.2,18.3,29.82,West,275,6.0,12.0,66,0.00,,OVC035,0.00,VWS V14.01,2013-03-04 08:21:00,
2013-03-04 03:26:00,28.3,18.4,29.82,West,279,4.0,12.0,66,0.00,,OVC035,0.00,VWS V14.01,2013-03-04 08:26:00,
2013-03-04 03:31:00,28.4,18.5,29.82,NW,322,10.0,10.0,66,0.00,,OVC035,0.00,VWS V14.01,2013-03-04 08:31:00,
2013-03-04 03:36:00,28.4,18.1,29.82,WNW,300,5.0,10.0,65,0.00,,OVC035,0.00,VWS V14.01,2013-03-04 08:36:00,
2013-03-04 03:41:00,28.5,18.6,29.82,West,275,5.0,10.0,66,0.00,,OVC035,0.00,VWS V14.01,2013-03-04 08:41:00,
2013-03-04 03:46:00,28.5,18.2,29.82,WNW,303,8.0,11.0,65,0.00,,OVC035,0.00,VWS V14.01,2013-03-04 08:46:00,
2013-03-04 03:51:00,28.5,18.2,29.82,WNW,302,5.0,11.0,65,0.00,,OVC035,0.00,VWS V14.01,2013-03-04 08:51:00,
2013-03-04 03:56:00,28.5,18.2,29.82,West,275,4.0,11.0,65,0.00,,OVC035,0.00,VWS V14.01,2013-03-04 08:56:00,
2013-03-04 04:01:00,28.5,18.2,29.83,NW,317,9.0,9.0,65,0.00,,OVC035,0.00,VWS V14.01,2013-03-04 09:01:00,
2013-03-04 04:06:00,28.5,18.2,29.83,NW,307,4.0,9.0,65,0.00,,OVC035,0.00,VWS V14.01,2013-03-04 09:06:00,
2013-03-04 04:11:00,28.4,18.1,29.83,NW,304,3.0,9.0,65,0.00,,OVC035,0.00,VWS V14.01,2013-03-04 09:11:00,
2013-03-04 04:16:00,28.3,18.4,29.83,NW,307,5.0,15.0,66,0.00,,OVC035,0.00,VWS V14.01,2013-03-04 09:16:00,
2013-03-04 04:21:00,28.3,18.4,29.83,NW,308,15.0,15.0,66,0.00,,OVC035,0.00,VWS V14.01,2013-03-04 09:21:00,
2013-03-04 04:26:00,28.3,18.4,29.83,NNW,331,3.0,15.0,66,0.00,,OVC035,0.00,VWS V14.01,2013-03-04 09:26:00,
2013-03-04 04:31:00,28.3,18.4,29.83,NNW,343,5.0,6.0,66,0.00,,OVC035,0.00,VWS V14.01,2013-03-04 09:31:00,
2013-03-04 04:36:00,28.3,18.4,29.83,WNW,296,5.0,14.0,66,0.00,,OVC035,0.00,VWS V14.01,2013-03-04 09:36:00,
2013-03-04 04:41:00,28.3,18.4,29.83,WNW,292,4.0,14.0,66,0.00,,OVC035,0.00,VWS V14.01,2013-03-04 09:41:00,
2013-03-04 04:46:00,28.4,18.5,29.83,WNW,297,4.0,14.0,66,0.00,,OVC035,0.00,VWS V14.01,2013-03-04 09:46:00,
2013-03-04 04:51:00,28.5,18.6,29.83,NW,318,2.0,14.0,66,0.00,,OVC035,0.00,VWS V14.01,2013-03-04 09:51:00,
2013-03-04 04:57:00,28.5,18.6,29.83,NW,323,7.0,14.0,66,0.00,,OVC035,0.00,VWS V14.01,2013-03-04 09:57:00,
2013-03-04 05:02:00,28.5,18.6,29.83,NW,321,7.0,12.0,66,0.00,,OVC033,0.00,VWS V14.01,2013-03-04 10:02:00,
2013-03-04 05:07:00,28.6,18.7,29.84,WNW,298,5.0,12.0,66,0.00,,OVC033,0.00,VWS V14.01,2013-03-04 10:07:00,
2013-03-04 05:12:00,28.7,18.8,29.84,NW,308,5.0,12.0,66,0.00,,OVC033,0.00,VWS V14.01,2013-03-04 10:12:00,
2013-03-04 05:17:00,28.7,18.8,29.84,NW,316,13.0,13.0,66,0.00,,OVC033,0.00,VWS V14.01,2013-03-04 10:17:00,
2013-03-04 05:22:00,28.7,18.8,29.84,SSE,155,3.0,13.0,66,0.00,,OVC033,0.00,VWS V14.01,2013-03-04 10:22:00,
2013-03-04 05:27:00,28.8,18.9,29.84,NNW,334,6.0,13.0,66,0.00,,OVC033,0.00,VWS V14.01,2013-03-04 10:27:00,
2013-03-04 05:32:00,28.8,18.9,29.84,NW,314,2.0,8.0,66,0.00,,OVC033,0.00,VWS V14.01,2013-03-04 10:32:00,
2013-03-04 05:37:00,28.8,18.9,29.84,West,261,4.0,9.0,66,0.00,,OVC033,0.00,VWS V14.01,2013-03-04 10:37:00,
2013-03-04 05:42:00,28.8,18.9,29.84,NW,304,3.0,12.0,66,0.00,,OVC033,0.00,VWS V14.01,2013-03-04 10:42:00,
2013-03-04 05:47:00,28.8,18.9,29.84,WNW,302,3.0,12.0,66,0.00,,OVC033,0.00,VWS V14.01,2013-03-04 10:47:00,
2013-03-04 05:52:00,28.9,19.0,29.84,WNW,300,3.0,12.0,66,0.00,,OVC033,0.00,VWS V14.01,2013-03-04 10:52:00,
2013-03-04 05:57:00,28.9,19.0,29.84,North,350,5.0,14.0,66,0.00,,OVC033,0.00,VWS V14.01,2013-03-04 10:57:00,
2013-03-04 06:02:00,28.9,19.0,29.84,WNW,295,4.0,10.0,66,0.00,,OVC033,0.00,VWS V14.01,2013-03-04 11:02:00,
2013-03-04 06:07:00,28.9,19.0,29.84,NW,313,3.0,10.0,66,0.00,,OVC033,0.00,VWS V14.01,2013-03-04 11:07:00,
2013-03-04 06:12:00,28.9,19.0,29.85,West,281,6.0,11.0,66,0.00,,OVC033,0.00,VWS V14.01,2013-03-04 11:12:00,
2013-03-04 06:17:00,28.9,19.0,29.85,WNW,303,2.0,11.0,66,0.00,,OVC033,0.00,VWS V14.01,2013-03-04 11:17:00,
2013-03-04 06:22:00,28.9,19.0,29.85,NW,315,8.0,13.0,66,0.00,,OVC033,0.00,VWS V14.01,2013-03-04 11:22:00,
2013-03-04 06:27:00,28.9,19.0,29.85,NW,307,3.0,13.0,66,0.00,,OVC033,0.00,VWS V14.01,2013-03-04 11:27:00,
2013-03-04 06:32:00,28.9,19.0,29.85,NW,308,5.0,8.0,66,0.00,,OVC033,0.00,VWS V14.01,2013-03-04 11:32:00,
2013-03-04 06:37:00,29.0,19.4,29.86,NW,312,8.0,10.0,67,0.00,,OVC033,0.00,VWS V14.01,2013-03-04 11:37:00,
2013-03-04 06:42:00,29.0,19.4,29.85,West,279,4.0,10.0,67,0.00,,OVC033,0.00,VWS V14.01,2013-03-04 11:42:00,
2013-03-04 06:47:00,29.1,19.5,29.86,NW,309,3.0,11.0,67,0.00,,OVC033,0.00,VWS V14.01,2013-03-04 11:47:00,
2013-03-04 06:52:00,29.2,19.3,29.86,West,269,4.0,11.0,66,0.00,,OVC033,0.00,VWS V14.01,2013-03-04 11:52:00,
2013-03-04 06:57:00,29.3,19.4,29.86,West,263,4.0,11.0,66,0.00,,OVC033,0.00,VWS V14.01,2013-03-04 11:57:00,
2013-03-04 07:02:00,29.4,19.8,29.86,NW,316,7.0,10.0,67,0.00,,OVC033,0.00,VWS V14.01,2013-03-04 12:02:00,
2013-03-04 07:07:00,29.6,19.6,29.86,NW,326,5.0,10.0,66,0.00,,OVC033,0.00,VWS V14.01,2013-03-04 12:07:00,
2013-03-04 07:12:00,29.7,19.8,29.86,WNW,296,1.0,11.0,66,0.00,,OVC033,0.00,VWS V14.01,2013-03-04 12:12:00,
2013-03-04 07:17:00,29.8,19.8,29.86,North,5,2.0,11.0,66,0.00,,OVC033,0.00,VWS V14.01,2013-03-04 12:17:00,
2013-03-04 07:22:00,29.9,19.9,29.86,West,281,6.0,11.0,66,0.00,,OVC033,0.00,VWS V14.01,2013-03-04 12:22:00,
2013-03-04 07:27:00,30.1,19.8,29.87,NW,306,6.0,11.0,65,0.00,,OVC033,0.00,VWS V14.01,2013-03-04 12:27:00,
2013-03-04 07:32:00,30.2,19.9,29.86,NNW,343,4.0,13.0,65,0.00,,OVC033,0.00,VWS V14.01,2013-03-04 12:32:00,
2013-03-04 07:37:00,30.3,20.0,29.87,WNW,298,3.0,14.0,65,0.00,,OVC033,0.00,VWS V14.01,2013-03-04 12:37:00,
2013-03-04 07:42:00,30.5,20.1,29.87,NW,317,4.0,14.0,65,0.00,,OVC033,0.00,VWS V14.01,2013-03-04 12:42:00,
2013-03-04 07:47:00,30.7,20.3,29.87,NNW,329,4.0,14.0,65,0.00,,OVC033,0.00,VWS V14.01,2013-03-04 12:47:00,
2013-03-04 07:52:00,31.1,20.4,29.87,NW,319,6.0,14.0,64,0.00,,OVC033,0.00,VWS V14.01,2013-03-04 12:52:00,
2013-03-04 07:57:00,31.5,20.7,29.87,NW,305,3.0,14.0,64,0.00,,OVC033,0.00,VWS V14.01,2013-03-04 12:57:00,
2013-03-04 08:02:00,32.1,20.6,29.87,West,276,5.0,13.0,62,0.00,,OVC033,0.00,VWS V14.01,2013-03-04 13:02:00,
2013-03-04 08:07:00,32.5,20.6,29.87,NW,313,7.0,13.0,61,0.00,,OVC033,0.00,VWS V14.01,2013-03-04 13:07:00,
2013-03-04 08:12:00,32.9,20.5,29.87,WNW,295,6.0,14.0,60,0.00,,OVC033,0.00,VWS V14.01,2013-03-04 13:12:00,
2013-03-04 08:17:00,32.7,20.4,29.87,NNW,343,5.0,14.0,60,0.00,,OVC033,0.00,VWS V14.01,2013-03-04 13:17:00,
2013-03-04 08:23:00,32.5,20.2,29.87,NW,307,7.0,14.0,60,0.00,,OVC033,0.00,VWS V14.01,2013-03-04 13:23:00,
2013-03-04 08:27:00,32.4,20.5,29.87,NW,311,4.0,14.0,61,0.00,,OVC033,0.00,VWS V14.01,2013-03-04 13:27:00,
2013-03-04 08:33:00,32.5,20.2,29.87,NW,316,4.0,9.0,60,0.00,,OVC033,0.00,VWS V14.01,2013-03-04 13:33:00,
2013-03-04 08:38:00,32.3,20.0,29.87,NNW,329,8.0,18.0,60,0.00,,OVC033,0.00,VWS V14.01,2013-03-04 13:38:00,
2013-03-04 08:43:00,32.1,19.8,29.87,WNW,298,6.0,18.0,60,0.00,,OVC033,0.00,VWS V14.01,2013-03-04 13:43:00,
2013-03-04 08:48:00,32.2,20.3,29.87,WNW,290,2.0,18.0,61,0.00,,OVC033,0.00,VWS V14.01,2013-03-04 13:48:00,
2013-03-04 08:53:00,32.3,20.0,29.87,NW,308,3.0,18.0,60,0.00,,OVC033,0.00,VWS V14.01,2013-03-04 13:53:00,
2013-03-04 08:58:00,32.3,20.0,29.87,West,277,6.0,18.0,60,0.00,,OVC033,0.00,VWS V14.01,2013-03-04 13:58:00,
2013-03-04 09:03:00,32.2,19.5,29.87,WNW,289,13.0,15.0,59,0.00,,OVC033,0.00,VWS V14.01,2013-03-04 14:03:00,
2013-03-04 09:08:00,32.2,19.9,29.87,NW,304,5.0,15.0,60,0.00,,OVC033,0.00,VWS V14.01,2013-03-04 14:08:00,
2013-03-04 09:13:00,32.3,19.6,29.87,WNW,288,8.0,15.0,59,0.00,,OVC033,0.00,VWS V14.01,2013-03-04 14:13:00,
2013-03-04 09:18:00,32.6,19.9,29.87,NNW,328,8.0,15.0,59,0.00,,OVC033,0.00,VWS V14.01,2013-03-04 14:18:00,
2013-03-04 09:23:00,32.8,19.7,29.87,South,186,6.0,15.0,58,0.00,,OVC033,0.00,VWS V14.01,2013-03-04 14:23:00,
2013-03-04 09:28:00,32.9,20.2,29.87,WNW,297,9.0,15.0,59,0.00,,OVC033,0.00,VWS V14.01,2013-03-04 14:28:00,
2013-03-04 09:33:00,33.2,20.0,29.87,NW,314,6.0,13.0,58,0.00,,OVC033,0.00,VWS V14.01,2013-03-04 14:33:00,
2013-03-04 09:38:00,33.9,20.3,29.87,WNW,282,6.0,15.0,57,0.00,,OVC033,0.00,VWS V14.01,2013-03-04 14:38:00,
2013-03-04 09:43:00,35.0,20.5,29.87,NNW,331,10.0,15.0,55,0.00,,OVC033,0.00,VWS V14.01,2013-03-04 14:43:00,
2013-03-04 09:48:00,35.6,20.6,29.87,WNW,291,5.0,15.0,54,0.00,,OVC033,0.00,VWS V14.01,2013-03-04 14:48:00,
2013-03-04 09:53:00,36.1,20.6,29.87,West,280,12.0,15.0,53,0.00,,OVC033,0.00,VWS V14.01,2013-03-04 14:53:00,
2013-03-04 09:58:00,36.6,20.6,29.87,WNW,292,4.0,15.0,52,0.00,,OVC033,0.00,VWS V14.01,2013-03-04 14:58:00,
2013-03-04 10:03:00,37.6,21.1,29.87,NW,316,9.0,15.0,51,0.00,,BKN041,0.00,VWS V14.01,2013-03-04 15:03:00,
2013-03-04 10:08:00,37.8,20.8,29.87,West,271,11.0,17.0,50,0.00,,BKN041,0.00,VWS V14.01,2013-03-04 15:08:00,
2013-03-04 10:13:00,37.2,20.3,29.87,NW,311,7.0,17.0,50,0.00,,BKN041,0.00,VWS V14.01,2013-03-04 15:13:00,
2013-03-04 10:18:00,36.8,19.9,29.87,WNW,290,13.0,17.0,50,0.00,,BKN041,0.00,VWS V14.01,2013-03-04 15:18:00,
2013-03-04 10:23:00,36.5,20.1,29.87,NW,325,8.0,17.0,51,0.00,,BKN041,0.00,VWS V14.01,2013-03-04 15:23:00,
2013-03-04 10:28:00,36.9,20.5,29.87,NW,319,11.0,17.0,51,0.00,,BKN041,0.00,VWS V14.01,2013-03-04 15:28:00,
2013-03-04 10:33:00,37.7,20.3,29.87,NW,306,12.0,16.0,49,0.00,,BKN041,0.00,VWS V14.01,2013-03-04 15:33:00,
2013-03-04 10:38:00,37.3,20.4,29.87,NW,317,11.0,20.0,50,0.00,,BKN041,0.00,VWS V14.01,2013-03-04 15:38:00,
2013-03-04 10:43:00,37.8,20.8,29.86,NW,313,8.0,20.0,50,0.00,,BKN041,0.00,VWS V14.01,2013-03-04 15:43:00,
2013-03-04 10:48:00,38.3,20.8,29.86,WNW,286,6.0,20.0,49,0.00,,BKN041,0.00,VWS V14.01,2013-03-04 15:48:00,
2013-03-04 10:53:00,39.0,21.0,29.86,NW,308,15.0,20.0,48,0.00,,BKN041,0.00,VWS V14.01,2013-03-04 15:53:00,
2013-03-04 10:58:00,39.2,20.7,29.86,WNW,298,10.0,20.0,47,0.00,,BKN041,0.00,VWS V14.01,2013-03-04 15:58:00,
2013-03-04 11:03:00,39.1,20.1,29.86,West,281,11.0,19.0,46,0.00,,CLR,0.00,VWS V14.01,2013-03-04 16:03:00,
2013-03-04 11:08:00,38.8,19.8,29.86,WNW,285,9.0,19.0,46,0.00,,CLR,0.00,VWS V14.01,2013-03-04 16:08:00,
2013-03-04 11:13:00,38.8,20.3,29.86,West,259,6.0,19.0,47,0.00,,CLR,0.00,VWS V14.01,2013-03-04 16:13:00,
2013-03-04 11:18:00,38.6,20.1,29.85,NNW,344,14.0,19.0,47,0.00,,CLR,0.00,VWS V14.01,2013-03-04 16:18:00,
2013-03-04 11:23:00,39.1,20.6,29.86,West,277,8.0,19.0,47,0.00,,CLR,0.00,VWS V14.01,2013-03-04 16:23:00,
2013-03-04 11:28:00,39.3,20.3,29.86,West,276,10.0,20.0,46,0.00,,CLR,0.00,VWS V14.01,2013-03-04 16:28:00,
2013-03-04 11:33:00,39.5,20.5,29.86,North,11,3.0,14.0,46,0.00,,CLR,0.00,VWS V14.01,2013-03-04 16:33:00,
2013-03-04 11:38:00,40.3,20.7,29.86,WNW,292,14.0,14.0,45,0.00,,CLR,0.00,VWS V14.01,2013-03-04 16:38:00,
2013-03-04 11:43:00,40.0,20.9,29.85,West,274,6.0,19.0,46,0.00,,CLR,0.00,VWS V14.01,2013-03-04 16:43:00,
2013-03-04 11:48:00,40.2,21.1,29.85,NNW,329,8.0,20.0,46,0.00,,CLR,0.00,VWS V14.01,2013-03-04 16:48:00,
2013-03-04 11:53:00,40.1,20.5,29.85,WNW,294,7.0,20.0,45,0.00,,CLR,0.00,VWS V14.01,2013-03-04 16:53:00,
2013-03-04 11:58:00,40.4,21.3,29.85,NW,313,10.0,20.0,46,0.00,,CLR,0.00,VWS V14.01,2013-03-04 16:58:00,
2013-03-04 12:03:00,41.0,21.8,29.85,NW,315,8.0,12.0,46,0.00,,FEW090,0.00,VWS V14.01,2013-03-04 17:03:00,
2013-03-04 12:08:00,40.6,20.4,29.85,NW,320,15.0,16.0,44,0.00,,FEW090,0.00,VWS V14.01,2013-03-04 17:08:00,
2013-03-04 12:13:00,40.6,20.9,29.85,NNW,329,8.0,19.0,45,0.00,,FEW090,0.00,VWS V14.01,2013-03-04 17:13:00,
2013-03-04 12:18:00,41.1,20.9,29.85,West,277,15.0,19.0,44,0.00,,FEW090,0.00,VWS V14.01,2013-03-04 17:18:00,
2013-03-04 12:23:00,40.3,20.7,29.85,NW,321,6.0,19.0,45,0.00,,FEW090,0.00,VWS V14.01,2013-03-04 17:23:00,
2013-03-04 12:28:00,40.8,21.1,29.85,NW,326,5.0,19.0,45,0.00,,FEW090,0.00,VWS V14.01,2013-03-04 17:28:00,
2013-03-04 12:33:00,40.6,20.4,29.84,WSW,254,6.0,14.0,44,0.00,,FEW090,0.00,VWS V14.01,2013-03-04 17:33:00,
2013-03-04 12:38:00,40.6,20.9,29.84,WNW,291,6.0,16.0,45,0.00,,FEW090,0.00,VWS V14.01,2013-03-04 17:38:00,
2013-03-04 12:43:00,40.8,21.1,29.84,WNW,302,4.0,17.0,45,0.00,,FEW090,0.00,VWS V14.01,2013-03-04 17:43:00,
2013-03-04 12:48:00,42.2,21.3,29.84,WSW,243,9.0,17.0,43,0.00,,FEW090,0.00,VWS V14.01,2013-03-04 17:48:00,
2013-03-04 12:53:00,42.4,21.5,29.84,West,261,7.0,19.0,43,0.00,,FEW090,0.00,VWS V14.01,2013-03-04 17:53:00,
2013-03-04 12:58:00,42.4,22.0,29.84,West,269,9.0,19.0,44,0.00,,FEW090,0.00,VWS V14.01,2013-03-04 17:58:00,
2013-03-04 13:04:00,42.6,21.1,29.84,WNW,296,10.0,16.0,42,0.00,,FEW050,0.00,VWS V14.01,2013-03-04 18:04:00,
2013-03-04 13:09:00,42.3,21.4,29.83,NW,318,14.0,16.0,43,0.00,,FEW050,0.00,VWS V14.01,2013-03-04 18:09:00,
2013-03-04 13:14:00,42.6,22.2,29.83,WNW,297,9.0,16.0,44,0.00,,FEW050,0.00,VWS V14.01,2013-03-04 18:14:00,
2013-03-04 13:19:00,43.1,22.1,29.83,NW,314,10.0,16.0,43,0.00,,FEW050,0.00,VWS V14.01,2013-03-04 18:19:00,
2013-03-04 13:24:00,42.8,21.9,29.83,NW,313,3.0,18.0,43,0.00,,FEW050,0.00,VWS V14.01,2013-03-04 18:24:00,
2013-03-04 13:29:00,43.0,22.0,29.83,NNW,334,6.0,21.0,43,0.00,,FEW050,0.00,VWS V14.01,2013-03-04 18:29:00,
2013-03-04 13:34:00,43.3,22.3,29.83,North,355,12.0,15.0,43,0.00,,FEW050,0.00,VWS V14.01,2013-03-04 18:34:00,
2013-03-04 13:39:00,43.6,22.0,29.83,West,274,3.0,21.0,42,0.00,,FEW050,0.00,VWS V14.01,2013-03-04 18:39:00,
2013-03-04 13:45:00,44.0,23.0,29.83,North,349,4.0,21.0,43,0.00,,FEW050,0.00,VWS V14.01,2013-03-04 18:45:00,
2013-03-04 13:50:00,44.2,22.6,29.83,NW,313,6.0,21.0,42,0.00,,FEW050,0.00,VWS V14.01,2013-03-04 18:50:00,
2013-03-04 13:55:00,43.9,22.3,29.83,NW,304,3.0,21.0,42,0.00,,FEW050,0.00,VWS V14.01,2013-03-04 18:55:00,
2013-03-04 14:00:00,43.9,22.3,29.83,NW,323,8.0,8.0,42,0.00,,CLR,0.00,VWS V14.01,2013-03-04 19:00:00,
2013-03-04 14:05:00,43.6,22.0,29.83,SW,219,6.0,24.0,42,0.00,,CLR,0.00,VWS V14.01,2013-03-04 19:05:00,
2013-03-04 14:10:00,44.0,22.4,29.83,WNW,300,7.0,24.0,42,0.00,,CLR,0.00,VWS V14.01,2013-03-04 19:10:00,
2013-03-04 14:15:00,44.0,22.4,29.83,WNW,287,6.0,24.0,42,0.00,,CLR,0.00,VWS V14.01,2013-03-04 19:15:00,
2013-03-04 14:20:00,44.1,22.5,29.83,West,261,9.0,24.0,42,0.00,,CLR,0.00,VWS V14.01,2013-03-04 19:20:00,
2013-03-04 14:25:00,44.3,22.7,29.82,West,259,12.0,24.0,42,0.00,,CLR,0.00,VWS V14.01,2013-03-04 19:25:00,
2013-03-04 14:30:00,44.6,22.9,29.82,WNW,294,4.0,6.0,42,0.00,,CLR,0.00,VWS V14.01,2013-03-04 19:30:00,
2013-03-04 14:35:00,45.1,23.4,29.82,WNW,302,7.0,10.0,42,0.00,,CLR,0.00,VWS V14.01,2013-03-04 19:35:00,
2013-03-04 14:40:00,45.2,22.9,29.82,NNW,336,4.0,17.0,41,0.00,,CLR,0.00,VWS V14.01,2013-03-04 19:40:00,
2013-03-04 14:45:00,45.2,22.9,29.83,West,264,4.0,18.0,41,0.00,,CLR,0.00,VWS V14.01,2013-03-04 19:45:00,
2013-03-04 14:50:00,45.3,22.4,29.83,WNW,296,6.0,18.0,40,0.00,,CLR,0.00,VWS V14.01,2013-03-04 19:50:00,
2013-03-04 14:55:00,45.2,22.9,29.82,WNW,299,8.0,18.0,41,0.00,,CLR,0.00,VWS V14.01,2013-03-04 19:55:00,
2013-03-04 15:00:00,45.8,23.5,29.83,WSW,250,7.0,7.0,41,0.00,,CLR,0.00,VWS V14.01,2013-03-04 20:00:00,
2013-03-04 15:05:00,45.6,22.7,29.82,NW,319,9.0,13.0,40,0.00,,CLR,0.00,VWS V14.01,2013-03-04 20:05:00,
2013-03-04 15:10:00,45.3,23.0,29.82,WNW,299,6.0,14.0,41,0.00,,CLR,0.00,VWS V14.01,2013-03-04 20:10:00,
2013-03-04 15:15:00,44.7,22.5,29.82,NW,306,3.0,14.0,41,0.00,,CLR,0.00,VWS V14.01,2013-03-04 20:15:00,
2013-03-04 15:20:00,44.6,22.4,29.82,West,261,4.0,14.0,41,0.00,,CLR,0.00,VWS V14.01,2013-03-04 20:20:00,
2013-03-04 15:25:00,44.6,22.4,29.82,NW,307,4.0,14.0,41,0.00,,CLR,0.00,VWS V14.01,2013-03-04 20:25:00,
2013-03-04 15:30:00,44.8,23.1,29.82,West,275,7.0,13.0,42,0.00,,CLR,0.00,VWS V14.01,2013-03-04 20:30:00,
2013-03-04 15:35:00,44.5,22.3,29.82,NW,306,7.0,25.0,41,0.00,,CLR,0.00,VWS V14.01,2013-03-04 20:35:00,
2013-03-04 15:40:00,44.3,22.1,29.82,West,261,7.0,25.0,41,0.00,,CLR,0.00,VWS V14.01,2013-03-04 20:40:00,
2013-03-04 15:45:00,44.6,22.4,29.82,NW,304,6.0,25.0,41,0.00,,CLR,0.00,VWS V14.01,2013-03-04 20:45:00,
2013-03-04 15:50:00,44.4,22.2,29.82,WNW,290,6.0,25.0,41,0.00,,CLR,0.00,VWS V14.01,2013-03-04 20:50:00,
2013-03-04 15:55:00,44.4,22.2,29.82,NW,306,11.0,25.0,41,0.00,,CLR,0.00,VWS V14.01,2013-03-04 20:55:00,
2013-03-04 16:00:00,44.5,22.3,29.82,NW,317,4.0,8.0,41,0.00,,CLR,0.00,VWS V14.01,2013-03-04 21:00:00,
2013-03-04 16:05:00,44.5,22.3,29.82,WNW,292,4.0,19.0,41,0.00,,CLR,0.00,VWS V14.01,2013-03-04 21:05:00,
2013-03-04 16:10:00,44.2,22.6,29.82,NW,312,7.0,19.0,42,0.00,,CLR,0.00,VWS V14.01,2013-03-04 21:10:00,
2013-03-04 16:15:00,44.0,22.4,29.82,NNW,334,6.0,19.0,42,0.00,,CLR,0.00,VWS V14.01,2013-03-04 21:15:00,
2013-03-04 16:20:00,43.8,22.2,29.82,NW,324,6.0,19.0,42,0.00,,CLR,0.00,VWS V14.01,2013-03-04 21:20:00,
2013-03-04 16:25:00,43.6,22.0,29.82,NNW,336,7.0,19.0,42,0.00,,CLR,0.00,VWS V14.01,2013-03-04 21:25:00,
2013-03-04 16:30:00,43.4,21.9,29.82,NNW,338,6.0,12.0,42,0.00,,CLR,0.00,VWS V14.01,2013-03-04 21:30:00,
2013-03-04 16:35:00,43.4,21.9,29.83,NW,312,2.0,12.0,42,0.00,,CLR,0.00,VWS V14.01,2013-03-04 21:35:00,
2013-03-04 16:40:00,43.5,22.5,29.83,NW,317,3.0,12.0,43,0.00,,CLR,0.00,VWS V14.01,2013-03-04 21:40:00,
2013-03-04 16:45:00,43.6,22.0,29.83,West,276,10.0,13.0,42,0.00,,CLR,0.00,VWS V14.01,2013-03-04 21:45:00,
2013-03-04 16:50:00,43.1,21.6,29.83,SW,214,3.0,13.0,42,0.00,,CLR,0.00,VWS V14.01,2013-03-04 21:50:00,
2013-03-04 16:55:00,42.5,21.6,29.83,West,280,4.0,16.0,43,0.00,,CLR,0.00,VWS V14.01,2013-03-04 21:55:00,
2013-03-04 17:00:00,42.3,22.0,29.83,WNW,298,6.0,6.0,44,0.00,,FEW060,0.00,VWS V14.01,2013-03-04 22:00:00,
2013-03-04 17:05:00,42.1,21.8,29.83,NNW,332,4.0,15.0,44,0.00,,FEW060,0.00,VWS V14.01,2013-03-04 22:05:00,
2013-03-04 17:10:00,42.0,22.2,29.83,WNW,296,6.0,16.0,45,0.00,,FEW060,0.00,VWS V14.01,2013-03-04 22:10:00,
2013-03-04 17:15:00,41.9,22.1,29.83,NW,308,3.0,16.0,45,0.00,,FEW060,0.00,VWS V14.01,2013-03-04 22:15:00,
2013-03-04 17:20:00,41.8,22.0,29.84,NNW,329,6.0,16.0,45,0.00,,FEW060,0.00,VWS V14.01,2013-03-04 22:20:00,
2013-03-04 17:25:00,41.5,21.8,29.84,WNW,294,6.0,16.0,45,0.00,,FEW060,0.00,VWS V14.01,2013-03-04 22:25:00,
2013-03-04 17:30:00,41.4,21.7,29.84,NNW,342,2.0,7.0,45,0.00,,FEW060,0.00,VWS V14.01,2013-03-04 22:30:00,
2013-03-04 17:35:00,41.3,22.1,29.84,NW,306,4.0,9.0,46,0.00,,FEW060,0.00,VWS V14.01,2013-03-04 22:35:00,
2013-03-04 17:40:00,41.0,21.8,29.85,NW,309,7.0,14.0,46,0.00,,FEW060,0.00,VWS V14.01,2013-03-04 22:40:00,
2013-03-04 17:45:00,40.8,21.6,29.85,West,274,2.0,14.0,46,0.00,,FEW060,0.00,VWS V14.01,2013-03-04 22:45:00,
2013-03-04 17:50:00,40.7,22.1,29.85,NNW,337,3.0,14.0,47,0.00,,FEW060,0.00,VWS V14.01,2013-03-04 22:50:00,
2013-03-04 17:55:00,40.4,21.8,29.85,WNW,284,3.0,14.0,47,0.00,,FEW060,0.00,VWS V14.01,2013-03-04 22:55:00,
2013-03-04 18:00:00,40.3,22.2,29.86,NW,314,5.0,6.0,48,0.00,,CLR,0.00,VWS V14.01,2013-03-04 23:00:00,
2013-03-04 18:05:00,40.1,21.5,29.86,NW,305,4.0,16.0,47,0.00,,CLR,0.00,VWS V14.01,2013-03-04 23:05:00,
2013-03-04 18:10:00,40.0,21.9,29.86,West,281,5.0,16.0,48,0.00,,CLR,0.00,VWS V14.01,2013-03-04 23:10:00,
2013-03-04 18:15:00,39.8,21.7,29.86,NW,306,3.0,16.0,48,0.00,,CLR,0.00,VWS V14.01,2013-03-04 23:15:00,
2013-03-04 18:20:00,39.5,21.5,29.87,NW,317,5.0,16.0,48,0.00,,CLR,0.00,VWS V14.01,2013-03-04 23:20:00,
2013-03-04 18:25:00,39.3,21.3,29.87,NNW,333,4.0,16.0,48,0.00,,CLR,0.00,VWS V14.01,2013-03-04 23:25:00,
2013-03-04 18:30:00,39.0,21.5,29.87,NW,305,7.0,9.0,49,0.00,,CLR,0.00,VWS V14.01,2013-03-04 23:30:00,
2013-03-04 18:35:00,38.6,21.1,29.88,North,5,6.0,16.0,49,0.00,,CLR,0.00,VWS V14.01,2013-03-04 23:35:00,
2013-03-04 18:40:00,38.3,20.8,29.88,NW,314,5.0,16.0,49,0.00,,CLR,0.00,VWS V14.01,2013-03-04 23:40:00,
2013-03-04 18:45:00,38.0,21.0,29.89,NNW,335,11.0,16.0,50,0.00,,CLR,0.00,VWS V14.01,2013-03-04 23:45:00,
2013-03-04 18:50:00,37.8,20.8,29.89,WNW,294,4.0,16.0,50,0.00,,CLR,0.00,VWS V14.01,2013-03-04 23:50:00,
2013-03-04 18:55:00,37.5,21.0,29.89,NW,313,8.0,16.0,51,0.00,,CLR,0.00,VWS V14.01,2013-03-04 23:55:00,
2013-03-04 19:00:00,37.3,20.9,29.90,NNW,329,3.0,5.0,51,0.00,,CLR,0.00,VWS V14.01,2013-03-05 00:00:00,
2013-03-04 19:05:00,37.0,21.0,29.90,North,9,10.0,13.0,52,0.00,,CLR,0.00,VWS V14.01,2013-03-05 00:05:00,
2013-03-04 19:10:00,36.8,20.8,29.90,NW,312,3.0,13.0,52,0.00,,CLR,0.00,VWS V14.01,2013-03-05 00:10:00,
2013-03-04 19:16:00,36.6,20.6,29.90,NW,321,6.0,13.0,52,0.00,,CLR,0.00,VWS V14.01,2013-03-05 00:16:00,
2013-03-04 19:21:00,36.4,20.9,29.90,NNW,338,3.0,13.0,53,0.00,,CLR,0.00,VWS V14.01,2013-03-05 00:21:00,
2013-03-04 19:26:00,36.1,21.1,29.91,NW,311,6.0,13.0,54,0.00,,CLR,0.00,VWS V14.01,2013-03-05 00:26:00,
2013-03-04 19:31:00,36.1,21.1,29.91,NW,314,1.0,5.0,54,0.00,,CLR,0.00,VWS V14.01,2013-03-05 00:31:00,
2013-03-04 19:36:00,36.0,21.0,29.91,NW,305,3.0,8.0,54,0.00,,CLR,0.00,VWS V14.01,2013-03-05 00:36:00,
2013-03-04 19:41:00,35.9,21.3,29.91,NW,315,5.0,8.0,55,0.00,,CLR,0.00,VWS V14.01,2013-03-05 00:41:00,
2013-03-04 19:46:00,35.8,21.2,29.91,WNW,294,2.0,10.0,55,0.00,,CLR,0.00,VWS V14.01,2013-03-05 00:46:00,
2013-03-04 19:51:00,35.8,21.2,29.91,NW,317,3.0,10.0,55,0.00,,CLR,0.00,VWS V14.01,2013-03-05 00:51:00,
2013-03-04 19:56:00,35.8,21.6,29.91,NW,313,3.0,10.0,56,0.00,,CLR,0.00,VWS V14.01,2013-03-05 00:56:00,
2013-03-04 20:01:00,35.9,21.3,29.91,NW,311,4.0,7.0,55,0.00,,BKN049,0.00,VWS V14.01,2013-03-05 01:01:00,
2013-03-04 20:06:00,35.9,21.3,29.91,WNW,298,4.0,11.0,55,0.00,,BKN049,0.00,VWS V14.01,2013-03-05 01:06:00,
2013-03-04 20:11:00,35.9,21.3,29.91,NW,311,5.0,13.0,55,0.00,,BKN049,0.00,VWS V14.01,2013-03-05 01:11:00,
2013-03-04 20:16:00,35.9,21.3,29.91,WNW,301,4.0,13.0,55,0.00,,BKN049,0.00,VWS V14.01,2013-03-05 01:16:00,
2013-03-04 20:21:00,36.0,21.8,29.91,WNW,300,5.0,13.0,56,0.00,,BKN049,0.00,VWS V14.01,2013-03-05 01:21:00,
2013-03-04 20:26:00,36.1,21.9,29.91,NW,309,4.0,13.0,56,0.00,,BKN049,0.00,VWS V14.01,2013-03-05 01:26:00,
2013-03-04 20:31:00,36.1,21.9,29.92,NW,321,3.0,10.0,56,0.00,,BKN049,0.00,VWS V14.01,2013-03-05 01:31:00,
2013-03-04 20:36:00,36.1,21.9,29.92,NNW,331,5.0,11.0,56,0.00,,BKN049,0.00,VWS V14.01,2013-03-05 01:36:00,
2013-03-04 20:41:00,36.1,22.4,29.92,NW,309,8.0,12.0,57,0.00,,BKN049,0.00,VWS V14.01,2013-03-05 01:41:00,
2013-03-04 20:46:00,36.0,22.7,29.92,NNW,329,8.0,13.0,58,0.00,,BKN049,0.00,VWS V14.01,2013-03-05 01:46:00,
2013-03-04 20:51:00,35.9,22.6,29.92,NNW,336,9.0,13.0,58,0.00,,BKN049,0.00,VWS V14.01,2013-03-05 01:51:00,
2013-03-04 20:56:00,35.8,22.5,29.92,WNW,296,5.0,14.0,58,0.00,,BKN049,0.00,VWS V14.01,2013-03-05 01:56:00,
2013-03-04 21:01:00,35.7,22.4,29.92,NW,310,6.0,9.0,58,0.00,,FEW047,0.00,VWS V14.01,2013-03-05 02:01:00,
2013-03-04 21:06:00,35.6,22.7,29.92,NNW,338,15.0,15.0,59,0.00,,FEW047,0.00,VWS V14.01,2013-03-05 02:06:00,
2013-03-04 21:11:00,35.7,22.8,29.92,WNW,296,10.0,15.0,59,0.00,,FEW047,0.00,VWS V14.01,2013-03-05 02:11:00,
2013-03-04 21:16:00,35.7,22.8,29.92,NW,319,5.0,18.0,59,0.00,,FEW047,0.00,VWS V14.01,2013-03-05 02:16:00,
2013-03-04 21:21:00,35.6,22.7,29.92,WNW,293,6.0,18.0,59,0.00,,FEW047,0.00,VWS V14.01,2013-03-05 02:21:00,
2013-03-04 21:26:00,35.5,22.6,29.92,WNW,284,4.0,18.0,59,0.00,,FEW047,0.00,VWS V14.01,2013-03-05 02:26:00,
2013-03-04 21:31:00,35.4,22.5,29.93,NW,317,9.0,12.0,59,0.00,,FEW047,0.00,VWS V14.01,2013-03-05 02:31:00,
2013-03-04 21:36:00,35.3,22.8,29.92,NNW,333,9.0,15.0,60,0.00,,FEW047,0.00,VWS V14.01,2013-03-05 02:36:00,
2013-03-04 21:41:00,35.1,22.2,29.92,NW,307,6.0,16.0,59,0.00,,FEW047,0.00,VWS V14.01,2013-03-05 02:41:00,
2013-03-04 21:46:00,35.1,22.6,29.93,NW,304,11.0,16.0,60,0.00,,FEW047,0.00,VWS V14.01,2013-03-05 02:46:00,
2013-03-04 21:51:00,35.0,22.5,29.93,WNW,300,6.0,16.0,60,0.00,,FEW047,0.00,VWS V14.01,2013-03-05 02:51:00,
2013-03-04 21:56:00,34.8,22.3,29.93,West,278,2.0,16.0,60,0.00,,FEW047,0.00,VWS V14.01,2013-03-05 02:56:00,
2013-03-04 22:01:00,34.8,22.3,29.93,NW,316,9.0,14.0,60,0.00,,BKN043,0.00,VWS V14.01,2013-03-05 03:01:00,
2013-03-04 22:07:00,34.7,22.2,29.93,NW,317,8.0,18.0,60,0.00,,BKN043,0.00,VWS V14.01,2013-03-05 03:07:00,
2013-03-04 22:11:00,34.7,22.2,29.94,NW,317,2.0,18.0,60,0.00,,BKN043,0.00,VWS V14.01,2013-03-05 03:11:00,
2013-03-04 22:16:00,34.6,22.5,29.94,NNW,331,5.0,18.0,61,0.00,,BKN043,0.00,VWS V14.01,2013-03-05 03:16:00,
2013-03-04 22:21:00,34.6,22.5,29.94,West,276,4.0,18.0,61,0.00,,BKN043,0.00,VWS V14.01,2013-03-05 03:21:00,
2013-03-04 22:26:00,34.5,22.5,29.94,WNW,302,2.0,18.0,61,0.00,,BKN043,0.00,VWS V14.01,2013-03-05 03:26:00,
2013-03-04 22:32:00,34.4,22.7,29.94,NNW,336,7.0,9.0,62,0.00,,BKN043,0.00,VWS V14.01,2013-03-05 03:32:00,
2013-03-04 22:37:00,34.3,22.6,29.95,NNW,329,3.0,9.0,62,0.00,,BKN043,0.00,VWS V14.01,2013-03-05 03:37:00,
2013-03-04 22:42:00,34.2,22.5,29.95,NW,306,3.0,9.0,62,0.00,,BKN043,0.00,VWS V14.01,2013-03-05 03:42:00,
2013-03-04 22:47:00,34.1,22.5,29.95,NNW,338,6.0,12.0,62,0.00,,BKN043,0.00,VWS V14.01,2013-03-05 03:47:00,
2013-03-04 22:52:00,34.1,22.5,29.95,NW,312,9.0,12.0,62,0.00,,BKN043,0.00,VWS V14.01,2013-03-05 03:52:00,
2013-03-04 22:57:00,34.0,22.4,29.95,NNW,335,4.0,14.0,62,0.00,,BKN043,0.00,VWS V14.01,2013-03-05 03:57:00,
2013-03-04 23:02:00,34.0,22.4,29.95,NW,322,4.0,9.0,62,0.00,,BKN041,0.00,VWS V14.01,2013-03-05 04:02:00,
2013-03-04 23:07:00,34.0,22.4,29.95,NNW,330,9.0,11.0,62,0.00,,BKN041,0.00,VWS V14.01,2013-03-05 04:07:00,
2013-03-04 23:12:00,33.9,22.3,29.95,NW,325,11.0,15.0,62,0.00,,BKN041,0.00,VWS V14.01,2013-03-05 04:12:00,
2013-03-04 23:17:00,33.9,22.3,29.95,WNW,285,10.0,16.0,62,0.00,,BKN041,0.00,VWS V14.01,2013-03-05 04:17:00,
2013-03-04 23:22:00,33.9,22.3,29.95,WNW,296,6.0,16.0,62,0.00,,BKN041,0.00,VWS V14.01,2013-03-05 04:22:00,
2013-03-04 23:27:00,33.9,22.3,29.95,West,281,2.0,16.0,62,0.00,,BKN041,0.00,VWS V14.01,2013-03-05 04:27:00,
2013-03-04 23:32:00,33.9,22.3,29.95,NW,313,6.0,14.0,62,0.00,,BKN041,0.00,VWS V14.01,2013-03-05 04:32:00,
2013-03-04 23:37:00,33.9,22.6,29.96,NW,306,5.0,14.0,63,0.00,,BKN041,0.00,VWS V14.01,2013-03-05 04:37:00,
2013-03-04 23:42:00,34.0,22.4,29.96,SW,234,4.0,14.0,62,0.00,,BKN041,0.00,VWS V14.01,2013-03-05 04:42:00,
2013-03-04 23:47:00,34.1,22.5,29.96,NW,306,8.0,14.0,62,0.00,,BKN041,0.00,VWS V14.01,2013-03-05 04:47:00,
2013-03-04 23:52:00,34.1,22.8,29.96,WNW,284,5.0,14.0,63,0.00,,BKN041,0.00,VWS V14.01,2013-03-05 04:52:00,
2013-03-04 23:57:00,34.1,22.8,29.96,NW,313,8.0,14.0,63,0.00,,BKN041,0.00,VWS V14.01,2013-03-05 04:57:00,